This is the latest recevied weather packets stored in our database for station/object KN6KS. If no packets are shown the sender has not sent any weather packets the latest 10 day(s).
| Time | Temp. | Humidity | Pressure | Rain* | Wind** | Luminosity | Snow |
|---|---|---|---|---|---|---|---|
| 1777689271 | 22.78° C | 33% | 1010.9 hPa | 0 mm | - | 4 W/m² | - |
| 1777688968 | 23.33° C | 35% | 1011 hPa | 0 mm | - | 6 W/m² | - |
| 1777688664 | 23.33° C | 37% | 1010.6 hPa | 0 mm | - | 10 W/m² | - |
| 1777688361 | 23.33° C | 37% | 1010.9 hPa | 0 mm | - | 15 W/m² | - |
| 1777688059 | 23.89° C | 36% | 1011 hPa | 0 mm | - | 19 W/m² | - |
| 1777687756 | 23.89° C | 37% | 1010.9 hPa | 0 mm | - | 23 W/m² | - |
| 1777687454 | 23.89° C | 36% | 1010.6 hPa | 0 mm | - | 28 W/m² | - |
| 1777687150 | 24.44° C | 36% | 1010.7 hPa | 0 mm | - | 33 W/m² | - |
| 1777686848 | 24.44° C | 36% | 1010.6 hPa | 0 mm | - | 37 W/m² | - |
| 1777686544 | 24.44° C | 37% | 1010.7 hPa | 0 mm | - | 43 W/m² | - |
| 1777686241 | 25° C | 36% | 1010.5 hPa | 0 mm | - | 48 W/m² | - |
| 1777685937 | 24.44° C | 36% | 1010.9 hPa | 0 mm | - | 54 W/m² | - |
| 1777685633 | 25° C | 37% | 1010.9 hPa | 0 mm | - | 78 W/m² | - |
| 1777685330 | 25° C | 36% | 1010.7 hPa | 0 mm | - | 90 W/m² | - |
| 1777685028 | 25° C | 35% | 1010.9 hPa | 0 mm | - | 80 W/m² | - |
| 1777684725 | 25.56° C | 34% | 1010.9 hPa | 0 mm | - | 98 W/m² | - |
| 1777684421 | 25.56° C | 33% | 1011 hPa | 0 mm | - | 119 W/m² | - |
| 1777684118 | 25.56° C | 34% | 1010.9 hPa | 0 mm | - | 149 W/m² | - |
| 1777683814 | 25.56° C | 34% | 1011 hPa | 0 mm | - | 159 W/m² | - |
| 1777683511 | 25.56° C | 34% | 1010.7 hPa | 0 mm | - | 175 W/m² | - |
| 1777683209 | 26.11° C | 34% | 1010.6 hPa | 0 mm | - | 196 W/m² | - |
| 1777682906 | 26.11° C | 33% | 1010.9 hPa | 0 mm | - | 218 W/m² | - |
| 1777682602 | 26.11° C | 33% | 1010.7 hPa | 0 mm | - | 233 W/m² | - |
| 1777682301 | 26.67° C | 31% | 1010.9 hPa | 0 mm | - | 246 W/m² | - |
| 1777681997 | 26.67° C | 30% | 1010.9 hPa | 0 mm | - | 275 W/m² | - |
* Rain latest hour (hover to see other rain measurements)
** Current wind speed in m/s (hover to see current wind gust speed)